Groton, CT

9:06 PM EDT on April 25, 2017 (GMT -0400)
Groton-New London

Weather History for KGON - April, 2013

Change the Weather History Date:

Thursday, April 11, 2013

  Actual Average Record
Temperature  
Mean Temperature 52 °F -  
Max Temperature 59 °F 53 °F 66 °F (1987)
Min Temperature 44 °F 34 °F 24 °F (1972)
Degree Days  
Heating Degree Days 14    
Growing Degree Days 2 (Base 50)    
Moisture  
Dew Point 44 °F    
Average Humidity 83    
Maximum Humidity 100    
Minimum Humidity 62    
Precipitation  
Precipitation 0.00 in - - ()
Sea Level Pressure  
Sea Level Pressure 29.94 in    
Wind  
Wind Speed 7 mph (NE)    
Max Wind Speed 18 mph    
Max Gust Speed 25 mph    
Visibility 8 miles    
Events Rain    
Averages and records for this station are not official NWS values.
T = Trace of Precipitation, MM = Missing Value Source: NWS Daily Summary

Daily Weather History Graph

Daily Weather History Graph

Search for Another Location

Airport or City:

Trip Planner

Search our weather history database for the weather conditions in past years. The results will help you decide how hot, cold, wet, or windy it might be!

Date:

Astronomy

Apr. 11, 2013 Rise Set
Actual Time 6:14 AM EDT 7:24 PM EDT
Civil Twilight 5:46 AM EDT 7:52 PM EDT
Nautical Twilight 5:12 AM EDT 8:26 PM EDT
Astronomical Twilight 4:36 AM EDT 9:02 PM EDT
Moon 6:43 AM EDT (4/11) 8:57 PM EDT (4/11)
Length of Visible Light 14h 06m
Length of Day
13h 09m
New Moon, 2% of the Moon is Illuminated
Apr 11
New Moon
Apr 18
First Quarter
Apr 25
Full
May 2
Last Quarter
May 9
New

Hourly Weather History & Observations

Time (EDT) Temp. Windchill Dew Point Humidity Pressure Visibility Wind Dir Wind Speed Gust Speed Precip Events Conditions
12:24 AM 44.6 °F 42.2 °F 42.8 °F 93% 29.87 in 8.0 mi SE 4.6 mph - 0.00 in Rain Light Rain
12:51 AM 44.6 °F 41.4 °F 42.8 °F 93% 29.86 in 8.0 mi ESE 5.8 mph - 0.00 in   Overcast
12:56 AM 45.0 °F 41.8 °F 43.0 °F 93% 29.86 in 8.0 mi East 5.8 mph - 0.00 in   Overcast
1:56 AM 45.0 °F 43.5 °F 43.0 °F 93% 29.83 in 9.0 mi NE 3.5 mph - 0.00 in   Overcast
2:56 AM 46.0 °F 44.8 °F 44.1 °F 93% 29.83 in 7.0 mi North 3.5 mph - N/A   Overcast
3:56 AM 46.9 °F - 45.0 °F 93% 29.82 in 6.0 mi NNE 4.6 mph - N/A   Overcast
4:48 AM 46.4 °F 42.9 °F 46.4 °F 100% 29.82 in 5.0 mi North 6.9 mph - N/A   Overcast
4:56 AM 46.9 °F - 45.0 °F 93% 29.83 in 6.0 mi North 5.8 mph - N/A   Mostly Cloudy
5:05 AM 46.4 °F 43.5 °F 44.6 °F 93% 29.83 in 6.0 mi North 5.8 mph - N/A   Mostly Cloudy
5:19 AM 48.2 °F - 46.4 °F 93% 29.84 in 5.0 mi North 4.6 mph - N/A   Mostly Cloudy
5:56 AM 48.0 °F - 46.0 °F 93% 29.87 in 5.0 mi NW 4.6 mph - N/A   Overcast
6:53 AM 50.0 °F - 48.2 °F 94% 29.90 in 2.0 mi NNW 3.5 mph - N/A   Overcast
6:56 AM 50.0 °F - 48.0 °F 93% 29.91 in 2.0 mi NNW 5.8 mph - N/A   Overcast
7:14 AM 50.0 °F - 48.2 °F 94% 29.92 in 3.0 mi NNW 5.8 mph - N/A   Overcast
7:22 AM 50.0 °F - 48.2 °F 94% 29.91 in 3.0 mi North 6.9 mph - N/A   Overcast
7:56 AM 51.1 °F - 48.0 °F 89% 29.93 in 5.0 mi North 5.8 mph - N/A   Overcast
8:05 AM 51.8 °F - 48.2 °F 88% 29.92 in 6.0 mi NNE 5.8 mph - N/A   Overcast
8:56 AM 53.1 °F - 46.9 °F 80% 29.93 in 10.0 mi North 12.7 mph - N/A   Overcast
9:25 AM 53.6 °F - 46.4 °F 77% 29.95 in 10.0 mi NNE 12.7 mph - N/A   Overcast
9:56 AM 55.0 °F - 46.0 °F 72% 29.96 in 10.0 mi NNE 8.1 mph - N/A   Overcast
10:56 AM 59.0 °F - 46.0 °F 62% 29.96 in 10.0 mi North 8.1 mph - N/A   Mostly Cloudy
11:56 AM 57.9 °F - 46.0 °F 65% 29.96 in 10.0 mi North 10.4 mph - N/A   Overcast
12:47 PM 51.8 °F - 46.4 °F 82% 29.97 in 10.0 mi South 6.9 mph - N/A   Overcast
12:56 PM 50.0 °F - 45.0 °F 83% 29.97 in 9.0 mi South 8.1 mph - N/A   Overcast
1:56 PM 53.1 °F - 45.0 °F 74% 29.99 in 10.0 mi SE 8.1 mph - N/A   Overcast
2:56 PM 53.1 °F - 44.1 °F 71% 29.98 in 10.0 mi East 12.7 mph - N/A   Overcast
3:34 PM 48.2 °F - 42.8 °F 82% 29.99 in 8.0 mi ESE 18.4 mph - N/A   Overcast
3:56 PM 48.9 °F - 41.0 °F 74% 29.99 in 8.0 mi ESE 17.3 mph 25.3 mph N/A   Overcast
4:56 PM 48.0 °F - 39.9 °F 74% 30.00 in 8.0 mi ESE 15.0 mph - N/A   Overcast
5:56 PM 48.0 °F - 39.0 °F 71% 30.00 in 9.0 mi East 17.3 mph - N/A   Overcast
6:56 PM 46.0 °F 39.9 °F 37.9 °F 73% 30.03 in 9.0 mi ESE 13.8 mph - N/A   Overcast
7:56 PM 45.0 °F 40.1 °F 37.9 °F 76% 30.05 in 10.0 mi ESE 9.2 mph - N/A   Overcast
8:56 PM 45.0 °F 41.2 °F 37.9 °F 76% 30.08 in 10.0 mi East 6.9 mph - N/A   Overcast
9:56 PM 45.0 °F 39.3 °F 37.0 °F 74% 30.10 in 10.0 mi East 11.5 mph - N/A   Overcast
10:56 PM 46.0 °F 41.9 °F 36.0 °F 68% 30.10 in 10.0 mi East 8.1 mph - N/A   Overcast
11:56 PM 46.0 °F 40.2 °F 34.0 °F 63% 30.10 in 10.0 mi East 12.7 mph - N/A   Overcast